Weather History for Hickory, NC

Change the Weather History Date:

Tuesday, April 1, 2014

  Actual Average Record
Temperature  
Mean Temperature 64 °F -  
Max Temperature 81 °F 68 °F 85 °F (1953)
Min Temperature 46 °F 42 °F 27 °F (1987)
Degree Days  
Heating Degree Days 2    
Growing Degree Days 14 (Base 50)    
Moisture  
Dew Point 33 °F    
Average Humidity 35    
Maximum Humidity 68    
Minimum Humidity 17    
Precipitation  
Precipitation 0.00 in - - ()
Sea Level Pressure  
Sea Level Pressure 30.02 in    
Wind  
Wind Speed 2 mph (SW)    
Max Wind Speed 9 mph    
Max Gust Speed 20 mph    
Visibility 10 miles    
Events      
Averages and records for this station are not official NWS values.
T = Trace of Precipitation, MM = Missing Value Source: NWS Daily Summary

Daily Weather History Graph

Daily Weather History Graph

Search for Another Location

Airport:

Trip Planner

Search our weather history database for the weather conditions in past years. The results will help you decide how hot, cold, wet, or windy it might be!

Date:

Astronomy

Apr. 01, 2014 Rise Set
Actual Time 7:11 AM EDT 7:47 PM EDT
Civil Twilight 6:46 AM EDT 8:13 PM EDT
Nautical Twilight 6:16 AM EDT 8:43 PM EDT
Astronomical Twilight 5:45 AM EDT 9:14 PM EDT
Moon 8:17 AM EDT (4/1) 10:03 PM EDT (4/1)
Length of Visible Light 13h 26m
Length of Day
12h 35m
Waxing Crescent, 4% of the Moon is Illuminated
Apr 1
Waxing Crescent
Apr 7
First Quarter
Apr 15
Full
Apr 22
Last Quarter
Apr 29
New

Hourly Weather History & Observations

Time (EDT) Temp. Dew Point Humidity Pressure Visibility Wind Dir Wind Speed Gust Speed Precip Events Conditions
12:53 AM 55.9 °F 21.0 °F 26% 30.04 in 10.0 mi Calm Calm - N/A   Clear
1:53 AM 54.0 °F 23.0 °F 30% 30.04 in 10.0 mi Calm Calm - N/A   Clear
2:53 AM 50.0 °F 33.1 °F 52% 30.04 in 10.0 mi Calm Calm - N/A   Clear
3:53 AM 48.0 °F 30.9 °F 52% 30.04 in 10.0 mi Calm Calm - N/A   Clear
4:53 AM 50.0 °F 28.9 °F 44% 30.03 in 10.0 mi Calm Calm - N/A   Clear
5:53 AM 46.9 °F 33.1 °F 59% 30.04 in 10.0 mi Calm Calm - N/A   Clear
6:53 AM 46.9 °F 35.1 °F 63% 30.04 in 10.0 mi Calm Calm - N/A   Clear
7:53 AM 46.9 °F 37.0 °F 68% 30.07 in 10.0 mi NW 3.5 mph - N/A   Clear
8:53 AM 48.9 °F 35.1 °F 59% 30.09 in 10.0 mi NNW 9.2 mph - N/A   Overcast
9:53 AM 54.0 °F 33.1 °F 45% 30.09 in 10.0 mi Calm Calm - N/A   Mostly Cloudy
10:53 AM 59.0 °F 35.1 °F 41% 30.09 in 10.0 mi Calm Calm - N/A   Overcast
11:53 AM 68.0 °F 35.1 °F 30% 30.07 in 10.0 mi Calm Calm - N/A   Mostly Cloudy
12:53 PM 73.9 °F 34.0 °F 23% 30.04 in 10.0 mi South 3.5 mph - N/A   Partly Cloudy
1:53 PM 75.9 °F 37.0 °F 24% 30.02 in 10.0 mi Calm Calm - N/A   Clear
2:53 PM 79.0 °F 34.0 °F 20% 30.00 in 10.0 mi WSW 8.1 mph - N/A   Clear
3:53 PM 80.1 °F 32.0 °F 17% 29.97 in 10.0 mi SW 9.2 mph 19.6 mph N/A   Clear
4:53 PM 81.0 °F 33.1 °F 18% 29.95 in 10.0 mi West 8.1 mph - N/A   Clear
5:53 PM 79.0 °F 32.0 °F 18% 29.95 in 10.0 mi SSW 9.2 mph - N/A   Clear
6:53 PM 78.1 °F 32.0 °F 19% 29.96 in 10.0 mi South 8.1 mph - N/A   Clear
7:53 PM 73.9 °F 32.0 °F 21% 29.98 in 10.0 mi South 6.9 mph - N/A   Clear
8:53 PM 71.1 °F 33.1 °F 25% 29.99 in 10.0 mi South 8.1 mph - N/A   Clear
9:53 PM 70.0 °F 35.1 °F 28% 30.00 in 10.0 mi South 6.9 mph - N/A   Clear
10:53 PM 66.0 °F 35.1 °F 32% 30.01 in 10.0 mi NNW 3.5 mph - N/A   Clear
11:53 PM 63.0 °F 36.0 °F 37% 30.01 in 10.0 mi South 4.6 mph - N/A   Clear